Tracking 20241 objects as of 26-Jan-2020
HD Live streaming from Space Station
objects crossing your sky now

COSMOS 2251 DEB

Track COSMOS 2251 DEB now!
10-day predictions


NORAD ID: 34726
Int'l Code: 1993-036YU
Perigee: 695.8 km
Apogee: 765.5 km
Inclination: 74.0 °
Period: 99.3 minutes
Semi major axis: 7101 km
RCS: 0.02 m2 (small)
Launch date: June 16, 1993
Source: Commonwealth of Independent States (former USSR) (CIS)
Launch site: PLESETSK MISSILE AND SPACE COMPLEX (PKMTR)

Note: This is SATELLITE DEBRIS
aabbcc
Your satellite tracking list
Your tracking list is empty




NASA's NSSDC Master Catalog

Two Line Element Set (TLE):
1 34726U 93036YU  20025.56296743 +.00000118 +00000-0 +36707-4 0  9991
2 34726 074.0298 083.2070 0049058 045.1695 315.3436 14.50664905572964
Source of the keplerian elements: AFSPC